[Date Prev][Date Next][Thread Prev][Thread Next] - [Date Index][Thread Index][Author Index]

2 Line ISS Keps 4-18



ISS
1 25544U 98067A   09108.52667130  .00010800  00000-0  84397-4 0  6977
2 25544 051.6408 252.7625 0008582 253.7918 187.6845 15.72234264596569
----
Sent via sarex@amsat.org. Opinions expressed are those of the author.
Not an AMSAT member? Join now to support the amateur satellite program!
Subscription settings: http://amsat.org/mailman/listinfo/sarex



AMSAT Top AMSAT Home